This is the latest recevied weather packets stored in our database for station/object N2WH. If no packets are shown the sender has not sent any weather packets the latest 10 day(s).
| Time | Temp. | Humidity | Pressure | Rain* | Wind** | Luminosity | Snow |
|---|---|---|---|---|---|---|---|
| 1777700037 | 10° C | 77% | 1012.6 hPa | 0 mm | - | 0 W/m² | - |
| 1777699735 | 10.56° C | 77% | 1012.4 hPa | 0 mm | - | 0 W/m² | - |
| 1777699433 | 10° C | 77% | 1012.6 hPa | 0 mm | - | 0 W/m² | - |
| 1777699130 | 10° C | 80% | 1012.5 hPa | 0 mm | - | 0 W/m² | - |
| 1777698829 | 10° C | 80% | 1012.6 hPa | 0 mm | - | 0 W/m² | - |
| 1777698525 | 10.56° C | 80% | 1012.9 hPa | 0 mm | - | 0 W/m² | - |
| 1777698221 | 10.56° C | 76% | 1012.8 hPa | 0 mm | - | 0 W/m² | - |
| 1777697918 | 10.56° C | 75% | 1012.7 hPa | 0 mm | - | 0 W/m² | - |
| 1777697615 | 10.56° C | 74% | 1012.5 hPa | 0 mm | - | 0 W/m² | - |
| 1777697313 | 10.56° C | 75% | 1012.8 hPa | 0 mm | - | 0 W/m² | - |
| 1777697008 | 10.56° C | 76% | 1012.9 hPa | 0 mm | - | 0 W/m² | - |
| 1777696706 | 10.56° C | 75% | 1012.7 hPa | 0 mm | - | 0 W/m² | - |
| 1777696403 | 10.56° C | 76% | 1012.8 hPa | 0 mm | - | 0 W/m² | - |
| 1777696103 | 11.11° C | 75% | 1012.7 hPa | 0 mm | - | 0 W/m² | - |
| 1777695800 | 11.11° C | 74% | 1012.6 hPa | 0 mm | - | 0 W/m² | - |
| 1777695498 | 11.11° C | 74% | 1012.8 hPa | 0 mm | - | 0 W/m² | - |
| 1777695195 | 11.67° C | 71% | 1012.6 hPa | 0 mm | - | 0 W/m² | - |
| 1777694892 | 11.11° C | 68% | 1012.5 hPa | 0 mm | - | 0 W/m² | - |
| 1777694589 | 11.11° C | 69% | 1012.7 hPa | 0 mm | - | 0 W/m² | - |
| 1777694285 | 11.11° C | 70% | 1012.6 hPa | 0 mm | - | 0 W/m² | - |
| 1777693981 | 11.67° C | 68% | 1012.6 hPa | 0 mm | - | 0 W/m² | - |
| 1777693679 | 11.67° C | 68% | 1012.6 hPa | 0 mm | - | 0 W/m² | - |
| 1777693377 | 11.67° C | 68% | 1012.4 hPa | 0 mm | - | 0 W/m² | - |
| 1777693075 | 11.67° C | 66% | 1012.8 hPa | 0 mm | - | 0 W/m² | - |
| 1777692772 | 11.67° C | 66% | 1012.5 hPa | 0 mm | - | 0 W/m² | - |
* Rain latest hour (hover to see other rain measurements)
** Current wind speed in m/s (hover to see current wind gust speed)